Weather in Pitlyar

Russia / Yamalo-Nenets Autonomous Okrug     65°50′20″N   65°54′40″E
temp.,
°C
wind,
m/s
gust,
m/s
humid.,
%
clouds,
%
prec.,
mm/h
press.,
hPa
HPBL,
m
28 february, sun
sun2823:00−25s459613 0.0 102230
02:00−26ssw45970 0.0 102139
05:00−27s459817 0.0 102134
08:00−28s459761 0.0 102148
11:00−24ssw589343 0.0 1021255
14:00−22ssw579264 0.0 1020312
17:00−25ssw459572 0.0 102046
20:00−27ssw459490 0.0 101957
1 march, mon
mon123:00−27ssw459575 0.0 101955
02:00−27ssw459591 0.0 101849
05:00−27ssw579787 0.0 101788
08:00−27s599899 0.0 1016131
11:00−23ssw6109597 0.0 1014337
14:00−21ssw61093100 0.0 1011419
17:00−21s71093100 0.0 1009299
20:00−20s71394100 0.0 1006282
2 march, tue
tue223:00−17s81493100 0.0 1003429
02:00−16s91594100 0.3 1001527
05:00−16s91394100 0.8 999482
08:00−16s91392100 0.3 998380
11:00−15s81193100 0.5 999460
14:00−14s71093100 0.4 998436
17:00−14ssw61094100 0.8 998455
20:00−14s51095100 0.4 998409
3 march, wed
wed323:00−13s61094100 0.9 998450
02:00−13s61094100 0.5 998356
05:00−14s5995100 0.9 998340
08:00−15sse5895100 0.5 997297
11:00−14s5793100 0.9 998405
14:00−13s5692100 0.3 997474
17:00−13sse4695100 0.6 997291
20:00−15sse3496100 0.2 99753
4 march, thu
thu423:00−15sse3496100 0.3 99791
02:00−15sse3496100 0.1 99653
05:00−15sse3396100 0.3 99638
08:00−16sse2296100 0.1 99520
11:00−14sse1292100 0.1 995168
14:00−12se1186100 0.1 995309
17:00−14e1194100 0.1 99620
20:00−15e119796 0.1 99620